| time (UTC) | temp F | wind direction | speed MPH | gust MPH | rain 1hr in | rain 24hr in | rain mn in | humidity % | barometer mb |
| 20260506073053 | 37 | 0 | 0.0 | 0.0 | 0.00 | 0.00 | 0.00 | 73 | 1012.6 |
| 20260506072542 | 37 | 0 | 0.0 | 0.0 | 0.00 | 0.00 | 0.00 | 73 | 1012.4 |
| 20260506072042 | 38 | 0 | 0.0 | 0.0 | 0.00 | 0.00 | 0.00 | 73 | 1012.4 |
| 20260506071554 | 38 | 0 | 0.0 | 0.0 | 0.00 | 0.00 | 0.00 | 72 | 1012.3 |
| 20260506071041 | 38 | 0 | 0.0 | 0.0 | 0.00 | 0.00 | 0.00 | 72 | 1012.2 |
| 20260506070542 | 38 | 0 | 0.0 | 1.0 | 0.00 | 0.00 | 0.00 | 71 | 1012.2 |
| 20260506062040 | 37 | 0 | 0.0 | 0.0 | 0.00 | 0.00 | 0.00 | 77 | 1012.1 |
| 20260506061555 | 37 | 0 | 0.0 | 0.0 | 0.00 | 0.00 | 0.00 | 76 | 1012.1 |
| 20260506061046 | 37 | 0 | 0.0 | 0.0 | 0.00 | 0.00 | 0.00 | 76 | 1012.1 |
| 20260506060543 | 37 | 0 | 0.0 | 0.0 | 0.00 | 0.00 | 0.00 | 75 | 1012.1 |
| 20260506051043 | 39 | 0 | 0.0 | 0.0 | 0.00 | 0.00 | 0.00 | 72 | 1011.7 |
| 20260506050541 | 39 | 0 | 0.0 | 0.0 | 0.00 | 0.00 | 0.00 | 72 | 1011.7 |
| 20260506045047 | 40 | 0 | 0.0 | 0.0 | 0.00 | 0.00 | 0.00 | 71 | 1011.6 |
| 20260506044613 | 40 | 0 | 0.0 | 0.0 | 0.00 | 0.00 | 0.00 | 70 | 1011.5 |
| 20260506044040 | 40 | 0 | 0.0 | 0.0 | 0.00 | 0.00 | 0.00 | 70 | 1011.6 |
| 20260506043542 | 41 | 0 | 0.0 | 0.0 | 0.00 | 0.00 | 0.00 | 69 | 1011.6 |
| 20260506043047 | 41 | 0 | 0.0 | 0.0 | 0.00 | 0.00 | 0.00 | 69 | 1011.6 |
| 20260506042543 | 41 | 0 | 0.0 | 0.0 | 0.00 | 0.00 | 0.00 | 68 | 1011.6 |
| 20260506042041 | 42 | 0 | 0.0 | 0.0 | 0.00 | 0.00 | 0.00 | 68 | 1011.6 |
| 20260506041549 | 42 | 0 | 0.0 | 0.0 | 0.00 | 0.00 | 0.00 | 67 | 1011.6 |
| 20260506041041 | 42 | 0 | 0.0 | 0.0 | 0.00 | 0.00 | 0.00 | 66 | 1011.6 |
| 20260506040542 | 42 | 0 | 0.0 | 0.0 | 0.00 | 0.00 | 0.00 | 66 | 1011.5 |
| 20260506040049 | 42 | 0 | 0.0 | 1.0 | 0.00 | 0.00 | 0.00 | 66 | 1011.5 |
| 20260506035541 | 43 | 0 | 0.0 | 1.0 | 0.00 | 0.00 | 0.00 | 65 | 1011.6 |
| 20260506035041 | 43 | 0 | 0.0 | 0.0 | 0.00 | 0.00 | 0.00 | 65 | 1011.5 |
| 20260506034549 | 43 | 0 | 0.0 | 0.0 | 0.00 | 0.00 | 0.00 | 63 | 1011.5 |
| 20260506034042 | 44 | 0 | 0.0 | 0.0 | 0.00 | 0.00 | 0.00 | 63 | 1011.5 |
| 20260506033542 | 44 | 0 | 0.0 | 0.0 | 0.00 | 0.00 | 0.00 | 63 | 1011.4 |
| 20260506033053 | 44 | 0 | 0.0 | 0.0 | 0.00 | 0.00 | 0.00 | 63 | 1011.4 |
| 20260506032541 | 44 | 0 | 0.0 | 0.0 | 0.00 | 0.00 | 0.00 | 62 | 1011.5 |
| 20260506032043 | 45 | 0 | 0.0 | 0.0 | 0.00 | 0.00 | 0.00 | 60 | 1011.5 |
| 20260506031552 | 45 | 0 | 0.0 | 0.0 | 0.00 | 0.00 | 0.00 | 59 | 1011.4 |
| 20260506031043 | 45 | 0 | 0.0 | 0.0 | 0.00 | 0.00 | 0.00 | 57 | 1011.5 |
| 20260506030541 | 46 | 0 | 0.0 | 0.0 | 0.00 | 0.00 | 0.00 | 56 | 1011.4 |
| 20260506030048 | 46 | 0 | 0.0 | 0.0 | 0.00 | 0.00 | 0.00 | 54 | 1011.4 |
| 20260506025542 | 46 | 0 | 0.0 | 0.0 | 0.00 | 0.00 | 0.00 | 54 | 1011.4 |
| 20260506025041 | 46 | 0 | 0.0 | 0.0 | 0.00 | 0.00 | 0.00 | 53 | 1011.4 |
| 20260506024555 | 47 | 0 | 0.0 | 0.0 | 0.00 | 0.00 | 0.00 | 52 | 1011.3 |
| 20260506024041 | 47 | 0 | 0.0 | 0.0 | 0.00 | 0.00 | 0.00 | 51 | 1011.3 |
| 20260506023543 | 47 | 0 | 0.0 | 0.0 | 0.00 | 0.00 | 0.00 | 51 | 1011.2 |
| 20260506023059 | 47 | 0 | 0.0 | 0.0 | 0.00 | 0.00 | 0.00 | 49 | 1011.1 |
| 20260506022541 | 47 | 0 | 0.0 | 0.0 | 0.00 | 0.00 | 0.00 | 48 | 1011.0 |
| 20260506022042 | 47 | 0 | 0.0 | 0.0 | 0.00 | 0.00 | 0.00 | 49 | 1011.0 |
| 20260506021600 | 48 | 0 | 0.0 | 2.0 | 0.00 | 0.00 | 0.00 | 47 | 1011.0 |
| 20260506021041 | 48 | 0 | 0.0 | 2.0 | 0.00 | 0.00 | 0.00 | 47 | 1010.9 |
| 20260506020540 | 48 | 0 | 0.0 | 2.0 | 0.00 | 0.00 | 0.00 | 46 | 1010.8 |
| 20260506020049 | 48 | 0 | 0.0 | 2.0 | 0.00 | 0.00 | 0.00 | 46 | 1010.8 |
| 20260506015542 | 48 | 249 | 0.0 | 3.0 | 0.00 | 0.00 | 0.00 | 45 | 1010.8 |
| 20260506015042 | 48 | 259 | 0.0 | 3.0 | 0.00 | 0.00 | 0.00 | 45 | 1010.7 |
| 20260506014547 | 48 | 0 | 0.0 | 2.0 | 0.00 | 0.00 | 0.00 | 45 | 1010.7 |
| 20260506014041 | 49 | 0 | 0.0 | 3.0 | 0.00 | 0.00 | 0.00 | 44 | 1010.6 |
| 20260506013541 | 49 | 0 | 0.0 | 5.0 | 0.00 | 0.00 | 0.00 | 44 | 1010.6 |
| 20260506013051 | 49 | 332 | 1.0 | 7.0 | 0.00 | 0.00 | 0.00 | 43 | 1010.5 |
| 20260506012541 | 49 | 348 | 2.0 | 7.0 | 0.00 | 0.00 | 0.00 | 43 | 1010.5 |
| 20260506012041 | 49 | 296 | 1.0 | 10.0 | 0.00 | 0.00 | 0.00 | 42 | 1010.5 |
| 20260506011545 | 50 | 278 | 2.0 | 14.0 | 0.00 | 0.00 | 0.00 | 42 | 1010.4 |
| 20260506011044 | 50 | 251 | 3.0 | 14.0 | 0.00 | 0.00 | 0.00 | 41 | 1010.4 |
| 20260506010543 | 50 | 360 | 4.0 | 14.0 | 0.00 | 0.00 | 0.00 | 41 | 1010.4 |
| 20260506010107 | 50 | 0 | 2.0 | 8.0 | 0.00 | 0.00 | 0.00 | 41 | 1010.4 |
| 20260506005542 | 50 | 314 | 2.0 | 9.0 | 0.00 | 0.00 | 0.00 | 41 | 1010.3 |
| 20260506005041 | 50 | 275 | 2.0 | 9.0 | 0.00 | 0.00 | 0.00 | 40 | 1010.3 |
| 20260506004552 | 51 | 301 | 2.0 | 10.0 | 0.00 | 0.00 | 0.00 | 40 | 1010.2 |
| 20260506004041 | 51 | 295 | 4.0 | 10.0 | 0.00 | 0.00 | 0.00 | 40 | 1010.1 |
| 20260506003542 | 51 | 315 | 4.0 | 8.0 | 0.00 | 0.00 | 0.00 | 39 | 1010.1 |
| 20260506003050 | 51 | 285 | 3.0 | 14.0 | 0.00 | 0.00 | 0.00 | 39 | 1010.1 |
| 20260506002541 | 51 | 328 | 4.0 | 14.0 | 0.00 | 0.00 | 0.00 | 39 | 1010.0 |
| 20260506002043 | 51 | 319 | 2.0 | 10.0 | 0.00 | 0.00 | 0.00 | 40 | 1010.0 |
| 20260506001548 | 51 | 302 | 3.0 | 11.0 | 0.00 | 0.00 | 0.00 | 38 | 1010.0 |
| 20260506001042 | 51 | 302 | 4.0 | 11.0 | 0.00 | 0.00 | 0.00 | 38 | 1009.9 |
| 20260506000544 | 51 | 242 | 3.0 | 11.0 | 0.00 | 0.00 | 0.00 | 37 | 1009.9 |
| 20260506000057 | 51 | 323 | 3.0 | 10.0 | 0.00 | 0.00 | 0.00 | 38 | 1010.0 |
| 20260505235542 | 51 | 322 | 3.0 | 9.0 | 0.00 | 0.00 | 0.00 | 38 | 1009.9 |
| 20260505235045 | 51 | 317 | 1.0 | 8.0 | 0.00 | 0.00 | 0.00 | 38 | 1010.0 |
| 20260505234604 | 51 | 296 | 4.0 | 8.0 | 0.00 | 0.00 | 0.00 | 38 | 1010.0 |
| 20260505234042 | 51 | 294 | 3.0 | 12.0 | 0.00 | 0.00 | 0.00 | 38 | 1009.9 |
| 20260505233541 | 51 | 300 | 4.0 | 12.0 | 0.00 | 0.00 | 0.00 | 37 | 1009.9 |
| 20260505233053 | 51 | 232 | 6.0 | 12.0 | 0.00 | 0.00 | 0.00 | 36 | 1009.8 |
| 20260505232541 | 51 | 236 | 5.0 | 13.0 | 0.00 | 0.00 | 0.00 | 38 | 1009.9 |
| 20260505232043 | 51 | 244 | 6.0 | 13.0 | 0.00 | 0.00 | 0.00 | 36 | 1009.9 |
| 20260505231550 | 51 | 313 | 3.0 | 12.0 | 0.00 | 0.00 | 0.00 | 37 | 1009.9 |
| 20260505231042 | 52 | 318 | 4.0 | 12.0 | 0.00 | 0.00 | 0.00 | 36 | 1009.9 |
| 20260505230542 | 52 | 323 | 6.0 | 15.0 | 0.00 | 0.00 | 0.00 | 36 | 1010.0 |
| 20260505230046 | 52 | 258 | 3.0 | 15.0 | 0.00 | 0.00 | 0.00 | 37 | 1010.0 |
| 20260505225542 | 52 | 344 | 6.0 | 15.0 | 0.00 | 0.00 | 0.00 | 36 | 1010.0 |
| 20260505225041 | 52 | 287 | 4.0 | 10.0 | 0.00 | 0.00 | 0.00 | 36 | 1010.0 |
| 20260505224549 | 52 | 261 | 5.0 | 10.0 | 0.00 | 0.00 | 0.00 | 35 | 1010.1 |
| 20260505224045 | 51 | 228 | 2.0 | 11.0 | 0.00 | 0.00 | 0.00 | 36 | 1010.0 |
| 20260505223542 | 51 | 348 | 5.0 | 11.0 | 0.00 | 0.00 | 0.00 | 34 | 1010.1 |
| 20260505223051 | 52 | 312 | 3.0 | 9.0 | 0.00 | 0.00 | 0.00 | 35 | 1010.0 |
| 20260505222545 | 52 | 279 | 3.0 | 9.0 | 0.00 | 0.00 | 0.00 | 35 | 1009.9 |
| 20260505222042 | 52 | 341 | 2.0 | 10.0 | 0.00 | 0.00 | 0.00 | 35 | 1009.9 |
| 20260505221548 | 52 | 0 | 2.0 | 11.0 | 0.00 | 0.00 | 0.00 | 34 | 1009.9 |
| 20260505221043 | 52 | 302 | 4.0 | 11.0 | 0.00 | 0.00 | 0.00 | 34 | 1009.9 |
| 20260505220544 | 52 | 240 | 4.0 | 11.0 | 0.00 | 0.00 | 0.00 | 35 | 1009.8 |
| 20260505220050 | 52 | 302 | 2.0 | 11.0 | 0.00 | 0.00 | 0.00 | 36 | 1009.9 |
| 20260505215541 | 52 | 290 | 4.0 | 11.0 | 0.00 | 0.00 | 0.00 | 35 | 1009.8 |
| 20260505215044 | 52 | 329 | 4.0 | 14.0 | 0.00 | 0.00 | 0.00 | 35 | 1010.0 |
| 20260505214604 | 52 | 5 | 4.0 | 14.0 | 0.00 | 0.00 | 0.00 | 36 | 1010.0 |
| 20260505214041 | 52 | 317 | 6.0 | 14.0 | 0.00 | 0.00 | 0.00 | 34 | 1010.0 |
| 20260505213542 | 52 | 294 | 4.0 | 13.0 | 0.00 | 0.00 | 0.00 | 36 | 1009.9 |
| 20260505213056 | 52 | 304 | 5.0 | 13.0 | 0.00 | 0.00 | 0.00 | 35 | 1010.0 |
| 20260505212542 | 52 | 263 | 6.0 | 14.0 | 0.00 | 0.00 | 0.00 | 35 | 1010.0 |
| 20260505212042 | 53 | 238 | 6.0 | 15.0 | 0.00 | 0.00 | 0.00 | 34 | 1010.0 |
| 20260505211553 | 53 | 305 | 6.0 | 15.0 | 0.00 | 0.00 | 0.00 | 35 | 1010.0 |
| 20260505211042 | 53 | 257 | 6.0 | 14.0 | 0.00 | 0.00 | 0.00 | 35 | 1009.9 |
| 20260505210541 | 53 | 5 | 2.0 | 18.0 | 0.00 | 0.00 | 0.00 | 36 | 1010.0 |
| 20260505210057 | 53 | 355 | 6.0 | 18.0 | 0.00 | 0.00 | 0.00 | 35 | 1010.0 |
| 20260505205542 | 53 | 287 | 6.0 | 18.0 | 0.00 | 0.00 | 0.00 | 35 | 1010.0 |
| 20260505205045 | 53 | 285 | 5.0 | 13.0 | 0.00 | 0.00 | 0.00 | 38 | 1009.9 |
| 20260505204557 | 52 | 302 | 6.0 | 13.0 | 0.00 | 0.00 | 0.00 | 35 | 1010.0 |
| 20260505204041 | 52 | 269 | 5.0 | 11.0 | 0.00 | 0.00 | 0.00 | 35 | 1010.0 |
| 20260505203542 | 52 | 325 | 6.0 | 13.0 | 0.00 | 0.00 | 0.00 | 34 | 1010.0 |
| 20260505203053 | 52 | 232 | 3.0 | 13.0 | 0.00 | 0.00 | 0.00 | 35 | 1010.1 |
| 20260505202541 | 52 | 304 | 8.0 | 18.0 | 0.00 | 0.00 | 0.00 | 33 | 1010.1 |
| 20260505202041 | 53 | 15 | 7.0 | 19.0 | 0.00 | 0.00 | 0.00 | 35 | 1010.1 |
| 20260505201554 | 52 | 296 | 8.0 | 20.0 | 0.00 | 0.00 | 0.00 | 34 | 1010.1 |
| 20260505201042 | 52 | 300 | 7.0 | 20.0 | 0.00 | 0.00 | 0.00 | 33 | 1010.1 |
| 20260505200540 | 52 | 213 | 7.0 | 20.0 | 0.00 | 0.00 | 0.00 | 35 | 1010.3 |
| 20260505195541 | 52 | 311 | 6.0 | 16.0 | 0.00 | 0.00 | 0.00 | 34 | 1010.1 |
| 20260505195041 | 53 | 234 | 6.0 | 16.0 | 0.00 | 0.00 | 0.00 | 34 | 1010.1 |
| 20260505194554 | 52 | 237 | 6.0 | 16.0 | 0.00 | 0.00 | 0.00 | 36 | 1010.1 |
| 20260505194042 | 52 | 315 | 6.0 | 16.0 | 0.00 | 0.00 | 0.00 | 35 | 1010.2 |
| 20260505193543 | 52 | 346 | 6.0 | 17.0 | 0.00 | 0.00 | 0.00 | 35 | 1010.2 |
| 20260505193052 | 52 | 355 | 6.0 | 17.0 | 0.00 | 0.00 | 0.00 | 34 | 1010.2 |
| 20260505192538 | 52 | 311 | 9.0 | 17.0 | 0.00 | 0.00 | 0.00 | 33 | 1010.2 |
| 20260505192041 | 52 | 202 | 6.0 | 17.0 | 0.00 | 0.00 | 0.00 | 34 | 1010.3 |
| 20260505191550 | 53 | 304 | 6.0 | 17.0 | 0.00 | 0.00 | 0.00 | 36 | 1010.2 |
| 20260505191040 | 53 | 261 | 5.0 | 17.0 | 0.00 | 0.00 | 0.00 | 35 | 1010.2 |
| 20260505190542 | 53 | 261 | 7.0 | 17.0 | 0.00 | 0.00 | 0.00 | 33 | 1010.2 |
| 20260505190048 | 53 | 355 | 6.0 | 17.0 | 0.00 | 0.00 | 0.00 | 34 | 1010.3 |
| 20260505185541 | 53 | 225 | 6.0 | 17.0 | 0.00 | 0.00 | 0.00 | 35 | 1010.4 |
| 20260505185042 | 53 | 294 | 4.0 | 13.0 | 0.00 | 0.00 | 0.00 | 35 | 1010.4 |
| 20260505184552 | 52 | 333 | 5.0 | 14.0 | 0.00 | 0.00 | 0.00 | 37 | 1010.3 |
| 20260505184042 | 52 | 281 | 5.0 | 14.0 | 0.00 | 0.00 | 0.00 | 36 | 1010.3 |
| 20260505183546 | 51 | 277 | 4.0 | 14.0 | 0.00 | 0.00 | 0.00 | 37 | 1010.2 |
| 20260505183057 | 51 | 255 | 6.0 | 15.0 | 0.00 | 0.00 | 0.00 | 35 | 1010.2 |
| 20260505182541 | 51 | 244 | 6.0 | 17.0 | 0.00 | 0.00 | 0.00 | 35 | 1010.1 |
| 20260505182041 | 51 | 274 | 7.0 | 17.0 | 0.00 | 0.00 | 0.00 | 36 | 1010.1 |
| 20260505181550 | 51 | 355 | 4.0 | 16.0 | 0.00 | 0.00 | 0.00 | 36 | 1010.0 |
| 20260505181045 | 51 | 337 | 5.0 | 14.0 | 0.00 | 0.00 | 0.00 | 36 | 1010.0 |
| 20260505180546 | 51 | 288 | 5.0 | 16.0 | 0.00 | 0.00 | 0.00 | 37 | 1010.0 |
| 20260505180104 | 51 | 240 | 9.0 | 16.0 | 0.00 | 0.00 | 0.00 | 35 | 1010.0 |
| 20260505175542 | 51 | 315 | 7.0 | 16.0 | 0.00 | 0.00 | 0.00 | 35 | 1010.0 |
| 20260505175043 | 52 | 350 | 7.0 | 16.0 | 0.00 | 0.00 | 0.00 | 35 | 1010.0 |
| 20260505174601 | 51 | 288 | 7.0 | 16.0 | 0.00 | 0.00 | 0.00 | 36 | 1010.1 |
| 20260505174042 | 51 | 352 | 6.0 | 16.0 | 0.00 | 0.00 | 0.00 | 35 | 1010.1 |
| 20260505173541 | 51 | 273 | 6.0 | 16.0 | 0.00 | 0.00 | 0.00 | 36 | 1010.1 |
| 20260505173052 | 50 | 258 | 7.0 | 15.0 | 0.00 | 0.00 | 0.00 | 37 | 1010.2 |
| 20260505172541 | 50 | 275 | 7.0 | 16.0 | 0.00 | 0.00 | 0.00 | 36 | 1010.2 |
| 20260505172042 | 50 | 262 | 6.0 | 16.0 | 0.00 | 0.00 | 0.00 | 35 | 1010.1 |
| 20260505171553 | 50 | 348 | 7.0 | 16.0 | 0.00 | 0.00 | 0.00 | 35 | 1010.2 |
| 20260505171043 | 50 | 344 | 6.0 | 14.0 | 0.00 | 0.00 | 0.00 | 37 | 1010.3 |
| 20260505170542 | 50 | 348 | 4.0 | 14.0 | 0.00 | 0.00 | 0.00 | 36 | 1010.3 |
| 20260505170049 | 50 | 296 | 5.0 | 13.0 | 0.00 | 0.00 | 0.00 | 35 | 1010.3 |
| 20260505165541 | 50 | 310 | 6.0 | 19.0 | 0.00 | 0.00 | 0.00 | 35 | 1010.2 |
| 20260505165041 | 50 | 295 | 7.0 | 19.0 | 0.00 | 0.00 | 0.00 | 35 | 1010.4 |
| 20260505164551 | 50 | 282 | 8.0 | 15.0 | 0.00 | 0.00 | 0.00 | 36 | 1010.4 |
| 20260505164043 | 50 | 240 | 8.0 | 16.0 | 0.00 | 0.00 | 0.00 | 35 | 1010.3 |
| 20260505163542 | 50 | 326 | 7.0 | 16.0 | 0.00 | 0.00 | 0.00 | 35 | 1010.4 |
| 20260505163054 | 50 | 247 | 7.0 | 22.0 | 0.00 | 0.00 | 0.00 | 36 | 1010.4 |
| 20260505162539 | 49 | 236 | 8.0 | 22.0 | 0.00 | 0.00 | 0.00 | 36 | 1010.3 |
| 20260505162041 | 49 | 265 | 5.0 | 14.0 | 0.00 | 0.00 | 0.00 | 37 | 1010.2 |
| 20260505161603 | 49 | 187 | 7.0 | 14.0 | 0.00 | 0.00 | 0.00 | 36 | 1010.3 |
| 20260505161042 | 49 | 282 | 5.0 | 14.0 | 0.00 | 0.00 | 0.00 | 37 | 1010.3 |
| 20260505160541 | 48 | 308 | 6.0 | 16.0 | 0.00 | 0.00 | 0.00 | 38 | 1010.2 |
| 20260505153053 | 48 | 316 | 8.0 | 17.0 | 0.00 | 0.00 | 0.00 | 35 | 1010.1 |
| 20260505152542 | 48 | 259 | 6.0 | 15.0 | 0.00 | 0.00 | 0.00 | 36 | 1010.0 |
| 20260505152044 | 47 | 323 | 7.0 | 15.0 | 0.00 | 0.00 | 0.00 | 37 | 1010.1 |
| 20260505151553 | 47 | 352 | 7.0 | 15.0 | 0.00 | 0.00 | 0.00 | 37 | 1010.0 |
| 20260505151042 | 47 | 271 | 7.0 | 14.0 | 0.00 | 0.00 | 0.00 | 37 | 1010.0 |
| 20260505150542 | 47 | 267 | 4.0 | 11.0 | 0.00 | 0.00 | 0.00 | 39 | 1010.1 |
| 20260505140542 | 45 | 21 | 5.0 | 13.0 | 0.00 | 0.00 | 0.00 | 48 | 1010.0 |
| 20260505124550 | 43 | 281 | 6.0 | 12.0 | 0.00 | 0.00 | 0.00 | 56 | 1009.6 |
| 20260505124045 | 43 | 295 | 3.0 | 13.0 | 0.00 | 0.00 | 0.00 | 57 | 1009.4 |
| 20260505123542 | 43 | 224 | 2.0 | 13.0 | 0.00 | 0.00 | 0.00 | 58 | 1009.4 |
| 20260505123100 | 43 | 267 | 4.0 | 11.0 | 0.00 | 0.00 | 0.00 | 59 | 1009.3 |
| 20260505122542 | 42 | 323 | 3.0 | 11.0 | 0.00 | 0.00 | 0.00 | 61 | 1009.2 |
| 20260505122042 | 42 | 274 | 4.0 | 11.0 | 0.00 | 0.00 | 0.00 | 62 | 1009.1 |
| 20260505121557 | 41 | 0 | 2.0 | 6.0 | 0.00 | 0.00 | 0.00 | 63 | 1009.0 |
| 20260505121043 | 41 | 254 | 2.0 | 6.0 | 0.00 | 0.00 | 0.00 | 64 | 1008.9 |
| 20260505120542 | 40 | 271 | 2.0 | 7.0 | 0.00 | 0.00 | 0.00 | 66 | 1008.8 |
| 20260505120052 | 39 | 273 | 1.0 | 7.0 | 0.00 | 0.00 | 0.00 | 68 | 1008.7 |
| 20260505115541 | 39 | 0 | 0.0 | 2.0 | 0.00 | 0.00 | 0.00 | 69 | 1008.5 |
| 20260505115042 | 38 | 0 | 0.0 | 2.0 | 0.00 | 0.00 | 0.00 | 70 | 1008.3 |
| 20260505114549 | 38 | 0 | 0.0 | 2.0 | 0.00 | 0.00 | 0.00 | 71 | 1008.1 |
| 20260505114046 | 38 | 346 | 0.0 | 3.0 | 0.00 | 0.00 | 0.00 | 71 | 1008.0 |
| 20260505113545 | 38 | 0 | 0.0 | 3.0 | 0.00 | 0.00 | 0.00 | 71 | 1007.9 |
| 20260505113056 | 38 | 0 | 0.0 | 2.0 | 0.00 | 0.00 | 0.00 | 70 | 1007.9 |
| 20260505112543 | 38 | 23 | 0.0 | 2.0 | 0.00 | 0.00 | 0.00 | 69 | 1007.9 |
| 20260505112042 | 38 | 22 | 0.0 | 3.0 | 0.00 | 0.00 | 0.00 | 68 | 1007.8 |
| 20260505111550 | 39 | 0 | 0.0 | 3.0 | 0.00 | 0.00 | 0.00 | 67 | 1007.8 |
| 20260505111043 | 39 | 0 | 1.0 | 3.0 | 0.00 | 0.00 | 0.00 | 66 | 1007.8 |
| 20260505110542 | 39 | 0 | 0.0 | 0.0 | 0.00 | 0.00 | 0.00 | 65 | 1007.7 |
| 20260505102042 | 43 | 0 | 0.0 | 0.0 | 0.00 | 0.00 | 0.00 | 57 | 1007.4 |
| 20260505101549 | 43 | 0 | 0.0 | 3.0 | 0.00 | 0.00 | 0.00 | 57 | 1007.3 |
| 20260505101042 | 43 | 0 | 0.0 | 3.0 | 0.00 | 0.00 | 0.00 | 56 | 1007.3 |
| 20260505100542 | 43 | 0 | 0.0 | 7.0 | 0.00 | 0.00 | 0.00 | 56 | 1007.2 |
| 20260505100052 | 43 | 287 | 1.0 | 7.0 | 0.00 | 0.00 | 0.00 | 56 | 1007.1 |
| 20260505095542 | 44 | 275 | 2.0 | 7.0 | 0.00 | 0.00 | 0.00 | 55 | 1007.1 |
| 20260505095041 | 44 | 277 | 2.0 | 7.0 | 0.00 | 0.00 | 0.00 | 55 | 1007.0 |
| 20260505094548 | 44 | 321 | 2.0 | 7.0 | 0.00 | 0.00 | 0.00 | 55 | 1006.9 |
| 20260505094042 | 44 | 0 | 2.0 | 10.0 | 0.00 | 0.00 | 0.00 | 55 | 1006.8 |
| 20260505093542 | 44 | 248 | 2.0 | 10.0 | 0.00 | 0.00 | 0.00 | 54 | 1006.8 |
| 20260505093047 | 44 | 283 | 2.0 | 13.0 | 0.00 | 0.00 | 0.00 | 53 | 1006.8 |
| 20260505092542 | 44 | 306 | 2.0 | 13.0 | 0.00 | 0.00 | 0.00 | 53 | 1006.7 |
| 20260505092043 | 44 | 277 | 3.0 | 8.0 | 0.00 | 0.00 | 0.00 | 53 | 1006.7 |
| 20260505091605 | 45 | 327 | 2.0 | 8.0 | 0.00 | 0.00 | 0.00 | 53 | 1006.6 |
| 20260505091040 | 45 | 309 | 2.0 | 10.0 | 0.00 | 0.00 | 0.00 | 53 | 1006.7 |
| 20260505090541 | 45 | 244 | 4.0 | 10.0 | 0.00 | 0.00 | 0.00 | 53 | 1006.6 |
| 20260505090049 | 45 | 257 | 3.0 | 9.0 | 0.00 | 0.00 | 0.00 | 53 | 1006.5 |
| 20260505085545 | 45 | 245 | 3.0 | 8.0 | 0.00 | 0.00 | 0.00 | 53 | 1006.5 |
| 20260505085042 | 45 | 275 | 2.0 | 10.0 | 0.00 | 0.00 | 0.00 | 54 | 1006.5 |
| 20260505084548 | 44 | 263 | 3.0 | 10.0 | 0.00 | 0.00 | 0.00 | 54 | 1006.4 |
| 20260505084042 | 44 | 234 | 2.0 | 8.0 | 0.00 | 0.00 | 0.00 | 55 | 1006.1 |
| 20260505083542 | 44 | 265 | 3.0 | 8.0 | 0.00 | 0.00 | 0.00 | 56 | 1006.1 |
| 20260505083048 | 44 | 261 | 2.0 | 8.0 | 0.00 | 0.00 | 0.00 | 56 | 1006.0 |
| 20260505082544 | 44 | 256 | 2.0 | 6.0 | 0.00 | 0.00 | 0.00 | 57 | 1006.0 |
| 20260505082043 | 44 | 277 | 2.0 | 8.0 | 0.00 | 0.00 | 0.00 | 57 | 1005.9 |
| 20260505081556 | 44 | 281 | 1.0 | 8.0 | 0.00 | 0.00 | 0.00 | 57 | 1005.7 |
| 20260505081043 | 44 | 247 | 2.0 | 6.0 | 0.00 | 0.00 | 0.00 | 58 | 1005.7 |
| 20260505080543 | 43 | 0 | 0.0 | 4.0 | 0.00 | 0.00 | 0.00 | 59 | 1005.6 |
| 20260505075542 | 43 | 0 | 0.0 | 3.0 | 0.00 | 0.00 | 0.00 | 59 | 1005.4 |